Location: ?????
(31.8092°N, 35.2590°E)
Time: 01:16:11
(UTC+00:00)

Cosmos 1953 - Pass Details

Date: 20 June 2021
Orbit: 537 x 557 km, 82.5° (Epoch: 04 August)

Event Time Altitude Azimuth Distance (km) Brightness Sun altitude
Rises 19:13:56 0° 343° (NNW) 2,743 7.0 -24.6°
Reaches altitude 10° 19:16:13 10° 335° (NNW) 1,843 6.0 -24.8°
Maximum altitude 19:19:57 36° 268° (W) 880 3.5 -25.3°
Enters shadow 19:20:16 36° 257° (WSW) 890 3.5 -25.4°
